QPF
0.04 0.03 0.03 0.02 0.02 0.02 0.04 0.04 0.05 0.05 0.05 0.06 0.07 0.10 0.14 0.15 0.14 0.10 0.09 0.10 0.08 0.06 0.07 0.07 0.05 0.04 0.05 0.06 0.07 0.06 0.06 0.05 0.07 0.07 0.06 0.05 0.04 0.05 0.06 0.06 0.05 0.05 0.05
0.04 0.04 0.04 0.03 0.03 0.03 0.04 0.04 0.04 0.04 0.04 0.07 0.09 0.11 0.11 0.11 0.14 0.14 0.11 0.11 0.10 0.08 0.07 0.07 0.07 0.07 0.06 0.07 0.07 0.06 0.06 0.06 0.05 0.05 0.04 0.05 0.05 0.03 0.04 0.04 0.04 0.04 0.04
0.04 0.06 0.06 0.05 0.05 0.05 0.05 0.05 0.05 0.05 0.05 0.06 0.07 0.08 0.08 0.10 0.12 0.12 0.14 0.13 0.11 0.10 0.09 0.07 0.07 0.07 0.07 0.07 0.07 0.07 0.06 0.06 0.06 0.05 0.04 0.04 0.06 0.05 0.04 0.04 0.04 0.03 0.03
0.07 0.08 0.08 0.08 0.07 0.06 0.05 0.06 0.08 0.07 0.06 0.05 0.05 0.06 0.08 0.10 0.11 0.11 0.11 0.12 0.11 0.09 0.09 0.09 0.07 0.06 0.06 0.07 0.07 0.07 0.06 0.06 0.06 0.06 0.05 0.04 0.05 0.06 0.05 0.04 0.04 0.03 0.03
0.07 0.08 0.08 0.08 0.07 0.06 0.05 0.07 0.08 0.07 0.06 0.06 0.06 0.05 0.07 0.06 0.06 0.08 0.07 0.08 0.09 0.09 0.08 0.08 0.08 0.08 0.07 0.07 0.07 0.08 0.07 0.08 0.08 0.07 0.06 0.06 0.04 0.05 0.05 0.04 0.03 0.04 0.03
0.09 0.08 0.08 0.05 0.04 0.03 0.04 0.06 0.09 0.07 0.06 0.07 0.07 0.07 0.07 0.05 0.06 0.09 0.09 0.08 0.10 0.09 0.08 0.07 0.09 0.08 0.08 0.07 0.08 0.08 0.07 0.06 0.08 0.08 0.08 0.09 0.08 0.06 0.05 0.06 0.04 0.04 0.04
0.05 0.05 0.05 0.04 0.03 0.03 0.03 0.04 0.06 0.07 0.07 0.07 0.09 0.10 0.08 0.05 0.04 0.05 0.06 0.07 0.09 0.09 0.08 0.07 0.09 0.08 0.07 0.07 0.07 0.06 0.06 0.05 0.05 0.06 0.07 0.06 0.05 0.05 0.05 0.06 0.06 0.04 0.04
0.04 0.05 0.06 0.04 0.03 0.03 0.03 0.03 0.05 0.06 0.07 0.07 0.08 0.11 0.10 0.06 0.04 0.04 0.05 0.04 0.05 0.05 0.06 0.06 0.07 0.07 0.06 0.05 0.05 0.05 0.05 0.05 0.05 0.04 0.05 0.06 0.04 0.03 0.02 0.04 0.06 0.05 0.04
0.03 0.03 0.05 0.06 0.05 0.04 0.05 0.06 0.06 0.07 0.06 0.06 0.06 0.06 0.08 0.06 0.04 0.03 0.04 0.05 0.05 0.05 0.06 0.07 0.07 0.06 0.05 0.05 0.05 0.06 0.05 0.05 0.05 0.05 0.04 0.05 0.04 0.03 0.02 0.02 0.04 0.05 0.05
0.03 0.02 0.02 0.04 0.07 0.07 0.07 0.07 0.06 0.06 0.06 0.07 0.06 0.05 0.04 0.03 0.03 0.04 0.05 0.05 0.04 0.04 0.04 0.06 0.06 0.05 0.05 0.04 0.04 0.05 0.05 0.05 0.05 0.05 0.05 0.04 0.03 0.03 0.03 0.03 0.03 0.04 0.04
0.04 0.03 0.03 0.04 0.06 0.07 0.07 0.07 0.05 0.05 0.07 0.06 0.05 0.04 0.04 0.02 0.02 0.02 0.03 0.03 0.03 0.02 0.02 0.04 0.04 0.05 0.05 0.06 0.05 0.05 0.06 0.05 0.04 0.04 0.06 0.06 0.05 0.04 0.03 0.03 0.03 0.03 0.04
0.04 0.04 0.04 0.04 0.03 0.03 0.03 0.03 0.03 0.04 0.05 0.05 0.06 0.05 0.04 0.03 0.03 0.03 0.02 0.02 0.02 0.01 0.02 0.02 0.03 0.04 0.04 0.07 0.05 0.08 0.06 0.05 0.04 0.03 0.04 0.05 0.06 0.05 0.03 0.03 0.03 0.04 0.04
0.04 0.03 0.03 0.02 0.02 0.02 0.02 0.03 0.03 0.03 0.03 0.05 0.07 0.07 0.05 0.05 0.05 0.05 0.04 0.03 0.03 0.03 0.03 0.03 0.03 0.05 0.04 0.06 0.06 0.05 0.04 0.04 0.04 0.03 0.03 0.03 0.05 0.06 0.04 0.03 0.03 0.04 0.04
0.03 0.03 0.03 0.02 0.03 0.02 0.02 0.02 0.03 0.03 0.03 0.05 0.06 0.06 0.05 0.04 0.04 0.05 0.05 0.04 0.04 0.05 0.06 0.06 0.05 0.05 0.05 0.05 0.05 0.05 0.05 0.04 0.03 0.03 0.02 0.02 0.03 0.04 0.04 0.03 0.03 0.03 0.04
0.03 0.03 0.03 0.03 0.03 0.01 0.01 0.01 0.02 0.03 0.03 0.02 0.02 0.03 0.03 0.03 0.04 0.03 0.04 0.04 0.04 0.06 0.06 0.06 0.06 0.05 0.04 0.04 0.04 0.04 0.04 0.04 0.03 0.03 0.02 0.02 0.02 0.03 0.04 0.04 0.02 0.02 0.03
0.03 0.03 0.03 0.02 0.02 0.02 0.02 0.02 0.02 0.02 0.04 0.02 0.02 0.02 0.02 0.01 0.02 0.02 0.02 0.02 0.03 0.05 0.05 0.05 0.05 0.04 0.04 0.04 0.04 0.03 0.03 0.03 0.02 0.02 0.02 0.02 0.03 0.03 0.03 0.03 0.02 0.01 0.02
0.03 0.03 0.02 0.02 0.03 0.04 0.04 0.02 0.01 0.02 0.02 0.02 0.02 0.01 0.01 0.01 0.01 0.01 0.01 0.01 0.02 0.02 0.03 0.04 0.04 0.03 0.03 0.02 0.02 0.03 0.03 0.03 0.02 0.02 0.02 0.01 0.02 0.02 0.02 0.02 0.03 0.02 0.01
0.04 0.04 0.03 0.04 0.04 0.04 0.04 0.04 0.03 0.02 0.02 0.02 0.02 0.02 0.01 0.01 0.01 0.01 0.01 0.01 0.01 0.01 0.01 0.01 0.01 0.02 0.02 0.01 0.02 0.03 0.03 0.03 0.02 0.02 0.02 0.02 0.01 0.02 0.02 0.02 0.03 0.03 0.02
0.06 0.05 0.05 0.06 0.05 0.03 0.04 0.05 0.04 0.03 0.02 0.01 0.01 0.02 0.01 0.02 0.01 0.01 0.01 0.01 0.01 0.01 0.01 0.01 0.01 0.01 0.01 0.01 0.01 0.02 0.02 0.03 0.02 0.02 0.02 0.02 0.02 0.02 0.02 0.03 0.03 0.02 0.02
0.11 0.08 0.09 0.07 0.07 0.06 0.04 0.04 0.04 0.03 0.02 0.02 0.02 0.01 0.01 0.01 0.01 0.01 0.01 0.01 0.01 0.02 0.03 0.03 0.02 0.02 0.01 0.01 0.01 0.02 0.02 0.02 0.03 0.02 0.02 0.02 0.01 0.01 0.02 0.02 0.02 0.02 0.03
0.07 0.06 0.08 0.09 0.09 0.06 0.03 0.03 0.03 0.03 0.02 0.02 0.02 0.01 0.01 0.01 0.01 0.01 0.01 0.01 0.01 0.01 0.01 0.01 0.02 0.01 0.01 0.01 0.01 0.02 0.02 0.02 0.01 0.01 0.01 0.01 0.01 0.01 0.01 0.02 0.02 0.03 0.03
0.02 0.03 0.07 0.10 0.08 0.05 0.03 0.03 0.04 0.04 0.03 0.02 0.01 0.01 0.01 0.01 0.01 0.01 0.00 0.01 0.01 0.01 0.01 0.01 0.02 0.01 0.01 0.01 0.01 0.02 0.02 0.02 0.01 0.01 0.01 0.01 0.01 0.01 0.01 0.01 0.02 0.02 0.02
0.02 0.02 0.03 0.04 0.04 0.04 0.04 0.03 0.02 0.02 0.02 0.02 0.01 0.01 0.01 0.01 0.01 0.01 0.01 0.01 0.01 0.01 0.01 0.01 0.02 0.02 0.02 0.02 0.03 0.02 0.01 0.01 0.01 0.01 0.01 0.01 0.01 0.01 0.01 0.01 0.01 0.01 0.01
0.01 0.02 0.02 0.02 0.03 0.05 0.05 0.03 0.02 0.02 0.02 0.02 0.01 0.01 0.01 0.01 0.01 0.01 0.01 0.01 0.00 0.00 0.01 0.02 0.02 0.02 0.02 0.02 0.03 0.03 0.03 0.02 0.01 0.01 0.01 0.01 0.01 0.01 0.00 0.00 0.01 0.01 0.01
0.02 0.02 0.02 0.03 0.03 0.02 0.03 0.03 0.02 0.01 0.01 0.01 0.01 0.01 0.01 0.01 0.01 0.01 0.01 0.00 0.00 0.00 0.01 0.02 0.02 0.02 0.02 0.02 0.03 0.04 0.04 0.03 0.02 0.01 0.01 0.01 0.01 0.01 0.00 0.00 0.00 0.01 0.01
0.03 0.03 0.03 0.03 0.02 0.01 0.01 0.01 0.02 0.01 0.02 0.03 0.02 0.02 0.01 0.01 0.01 0.01 0.01 0.01 0.01 0.00 0.01 0.01 0.01 0.01 0.01 0.02 0.02 0.02 0.02 0.02 0.01 0.01 0.01 0.01 0.01 0.01 0.00 0.00 0.00 0.00 0.00
MSLP
1011.01 1010.82 1010.58 1010.30 1010.00 1009.71 1009.44 1009.20 1009.01 1008.86 1008.73 1008.61 1008.48 1008.32 1008.16 1008.00 1007.86 1007.78 1007.78 1007.89 1008.11 1008.44 1008.87 1009.38 1009.92 1010.48 1011.01 1011.52 1011.96 1012.36 1012.70 1013.01 1013.29 1013.56 1013.85 1014.15 1014.49 1014.86 1015.27 1015.69 1016.12 1016.55 1016.96
1010.97 1010.74 1010.48 1010.20 1009.90 1009.62 1009.36 1009.13 1008.94 1008.77 1008.61 1008.44 1008.24 1007.99 1007.72 1007.42 1007.14 1006.92 1006.79 1006.80 1006.95 1007.26 1007.72 1008.30 1008.95 1009.64 1010.31 1010.92 1011.47 1011.92 1012.29 1012.59 1012.84 1013.07 1013.31 1013.57 1013.88 1014.23 1014.63 1015.06 1015.50 1015.96 1016.40
1010.85 1010.61 1010.35 1010.08 1009.81 1009.56 1009.32 1009.11 1008.91 1008.73 1008.53 1008.30 1008.02 1007.68 1007.29 1006.87 1006.45 1006.08 1005.82 1005.71 1005.78 1006.06 1006.52 1007.15 1007.89 1008.69 1009.48 1010.21 1010.84 1011.37 1011.78 1012.09 1012.33 1012.54 1012.74 1012.98 1013.25 1013.59 1013.97 1014.40 1014.86 1015.33 1015.80
1010.68 1010.44 1010.20 1009.96 1009.74 1009.52 1009.31 1009.10 1008.90 1008.68 1008.44 1008.15 1007.80 1007.37 1006.88 1006.35 1005.81 1005.32 1004.94 1004.73 1004.72 1004.94 1005.39 1006.03 1006.81 1007.68 1008.55 1009.37 1010.09 1010.68 1011.13 1011.48 1011.73 1011.93 1012.13 1012.35 1012.62 1012.94 1013.32 1013.75 1014.22 1014.70 1015.19
1010.52 1010.28 1010.07 1009.88 1009.69 1009.50 1009.31 1009.09 1008.86 1008.60 1008.30 1007.94 1007.52 1007.04 1006.48 1005.88 1005.28 1004.71 1004.25 1003.96 1003.87 1004.03 1004.43 1005.04 1005.82 1006.70 1007.60 1008.46 1009.22 1009.85 1010.35 1010.72 1011.00 1011.24 1011.45 1011.69 1011.96 1012.29 1012.68 1013.11 1013.58 1014.07 1014.58
1010.40 1010.17 1009.99 1009.83 1009.67 1009.49 1009.28 1009.04 1008.75 1008.43 1008.06 1007.65 1007.18 1006.66 1006.09 1005.48 1004.87 1004.29 1003.81 1003.47 1003.33 1003.42 1003.74 1004.28 1005.00 1005.82 1006.68 1007.52 1008.27 1008.91 1009.43 1009.84 1010.16 1010.44 1010.70 1010.97 1011.28 1011.63 1012.03 1012.47 1012.94 1013.43 1013.95
1010.37 1010.14 1009.96 1009.82 1009.66 1009.47 1009.22 1008.92 1008.56 1008.15 1007.71 1007.25 1006.77 1006.25 1005.72 1005.16 1004.60 1004.07 1003.62 1003.28 1003.11 1003.14 1003.38 1003.81 1004.40 1005.11 1005.87 1006.62 1007.31 1007.92 1008.43 1008.86 1009.23 1009.55 1009.87 1010.20 1010.56 1010.94 1011.36 1011.81 1012.28 1012.78 1013.29
1010.42 1010.19 1010.01 1009.85 1009.67 1009.42 1009.11 1008.72 1008.27 1007.77 1007.27 1006.76 1006.28 1005.80 1005.34 1004.88 1004.43 1004.01 1003.64 1003.35 1003.18 1003.16 1003.30 1003.60 1004.05 1004.60 1005.20 1005.81 1006.39 1006.93 1007.41 1007.84 1008.24 1008.62 1009.00 1009.40 1009.81 1010.24 1010.69 1011.15 1011.62 1012.10 1012.60
1010.58 1010.32 1010.12 1009.92 1009.68 1009.37 1008.96 1008.47 1007.91 1007.33 1006.75 1006.22 1005.74 1005.32 1004.96 1004.63 1004.32 1004.03 1003.77 1003.56 1003.42 1003.37 1003.43 1003.61 1003.89 1004.26 1004.68 1005.13 1005.58 1006.02 1006.44 1006.86 1007.28 1007.70 1008.14 1008.60 1009.07 1009.54 1010.02 1010.48 1010.95 1011.42 1011.90
1010.82 1010.53 1010.29 1010.03 1009.72 1009.32 1008.81 1008.22 1007.56 1006.88 1006.24 1005.67 1005.21 1004.84 1004.57 1004.36 1004.19 1004.04 1003.90 1003.78 1003.68 1003.63 1003.63 1003.71 1003.85 1004.06 1004.31 1004.60 1004.92 1005.25 1005.61 1006.00 1006.42 1006.88 1007.36 1007.87 1008.39 1008.90 1009.40 1009.87 1010.32 1010.77 1011.23
1011.09 1010.78 1010.49 1010.17 1009.79 1009.30 1008.71 1008.01 1007.26 1006.50 1005.80 1005.20 1004.73 1004.40 1004.19 1004.07 1004.01 1003.98 1003.95 1003.91 1003.87 1003.83 1003.80 1003.81 1003.86 1003.94 1004.07 1004.23 1004.44 1004.68 1004.98 1005.34 1005.76 1006.23 1006.75 1007.29 1007.84 1008.38 1008.88 1009.35 1009.79 1010.22 1010.65
1011.37 1011.03 1010.70 1010.34 1009.90 1009.35 1008.68 1007.92 1007.09 1006.28 1005.52 1004.88 1004.39 1004.05 1003.86 1003.79 1003.78 1003.82 1003.86 1003.89 1003.90 1003.89 1003.87 1003.86 1003.86 1003.89 1003.94 1004.03 1004.17 1004.36 1004.61 1004.94 1005.35 1005.83 1006.36 1006.92 1007.49 1008.04 1008.55 1009.01 1009.43 1009.83 1010.24
1011.60 1011.25 1010.90 1010.51 1010.04 1009.46 1008.76 1007.96 1007.10 1006.24 1005.45 1004.77 1004.24 1003.87 1003.65 1003.56 1003.56 1003.61 1003.68 1003.75 1003.79 1003.82 1003.84 1003.85 1003.87 1003.89 1003.94 1004.01 1004.13 1004.30 1004.53 1004.85 1005.25 1005.72 1006.25 1006.81 1007.38 1007.92 1008.43 1008.88 1009.29 1009.67 1010.04
1011.74 1011.40 1011.06 1010.68 1010.21 1009.63 1008.94 1008.15 1007.30 1006.43 1005.62 1004.91 1004.33 1003.90 1003.63 1003.48 1003.43 1003.44 1003.50 1003.56 1003.64 1003.70 1003.77 1003.83 1003.90 1003.98 1004.07 1004.18 1004.32 1004.50 1004.74 1005.05 1005.44 1005.90 1006.41 1006.96 1007.51 1008.04 1008.53 1008.97 1009.37 1009.73 1010.08
1011.79 1011.48 1011.16 1010.81 1010.38 1009.84 1009.20 1008.46 1007.65 1006.82 1006.02 1005.29 1004.68 1004.19 1003.84 1003.61 1003.47 1003.42 1003.42 1003.47 1003.54 1003.64 1003.75 1003.89 1004.04 1004.19 1004.36 1004.53 1004.72 1004.94 1005.20 1005.51 1005.88 1006.31 1006.80 1007.31 1007.84 1008.34 1008.82 1009.24 1009.63 1009.98 1010.31
1011.74 1011.47 1011.20 1010.89 1010.52 1010.06 1009.50 1008.84 1008.12 1007.35 1006.59 1005.88 1005.25 1004.72 1004.30 1003.98 1003.76 1003.63 1003.56 1003.56 1003.62 1003.73 1003.88 1004.08 1004.30 1004.54 1004.79 1005.04 1005.28 1005.54 1005.82 1006.12 1006.48 1006.87 1007.32 1007.79 1008.27 1008.74 1009.19 1009.60 1009.97 1010.31 1010.64
1011.63 1011.40 1011.18 1010.93 1010.63 1010.26 1009.79 1009.24 1008.61 1007.94 1007.26 1006.60 1006.00 1005.45 1004.99 1004.61 1004.32 1004.11 1003.97 1003.92 1003.94 1004.04 1004.22 1004.45 1004.72 1005.03 1005.33 1005.64 1005.93 1006.22 1006.50 1006.80 1007.12 1007.47 1007.86 1008.27 1008.70 1009.13 1009.54 1009.93 1010.29 1010.62 1010.94
1011.51 1011.32 1011.13 1010.93 1010.70 1010.40 1010.03 1009.58 1009.07 1008.51 1007.93 1007.36 1006.80 1006.29 1005.83 1005.42 1005.09 1004.82 1004.63 1004.53 1004.51 1004.59 1004.75 1004.98 1005.27 1005.60 1005.93 1006.26 1006.57 1006.86 1007.14 1007.41 1007.69 1007.99 1008.32 1008.66 1009.03 1009.40 1009.77 1010.13 1010.46 1010.78 1011.09
1011.42 1011.25 1011.09 1010.93 1010.74 1010.50 1010.21 1009.85 1009.45 1009.00 1008.53 1008.05 1007.58 1007.12 1006.70 1006.32 1005.97 1005.68 1005.46 1005.31 1005.25 1005.29 1005.41 1005.61 1005.88 1006.18 1006.51 1006.83 1007.13 1007.40 1007.65 1007.88 1008.12 1008.36 1008.62 1008.89 1009.19 1009.50 1009.82 1010.13 1010.43 1010.72 1011.02
1011.41 1011.25 1011.10 1010.95 1010.78 1010.58 1010.33 1010.05 1009.72 1009.37 1009.00 1008.62 1008.24 1007.87 1007.52 1007.18 1006.86 1006.58 1006.35 1006.17 1006.07 1006.05 1006.11 1006.25 1006.47 1006.72 1007.00 1007.28 1007.55 1007.78 1008.00 1008.19 1008.37 1008.55 1008.74 1008.95 1009.18 1009.42 1009.67 1009.92 1010.18 1010.44 1010.71
1011.47 1011.32 1011.17 1011.01 1010.85 1010.66 1010.44 1010.19 1009.92 1009.63 1009.34 1009.04 1008.76 1008.48 1008.20 1007.92 1007.66 1007.40 1007.17 1006.98 1006.84 1006.76 1006.76 1006.84 1006.97 1007.16 1007.37 1007.59 1007.81 1008.01 1008.18 1008.33 1008.47 1008.60 1008.73 1008.87 1009.02 1009.19 1009.37 1009.56 1009.76 1009.98 1010.21
1011.61 1011.46 1011.31 1011.15 1010.98 1010.78 1010.56 1010.32 1010.07 1009.82 1009.58 1009.34 1009.12 1008.92 1008.71 1008.50 1008.29 1008.07 1007.86 1007.66 1007.49 1007.37 1007.30 1007.30 1007.36 1007.47 1007.62 1007.78 1007.95 1008.10 1008.24 1008.36 1008.46 1008.55 1008.63 1008.71 1008.80 1008.90 1009.00 1009.12 1009.26 1009.42 1009.60
1011.78 1011.65 1011.51 1011.36 1011.18 1010.97 1010.74 1010.49 1010.24 1009.99 1009.76 1009.56 1009.38 1009.22 1009.07 1008.91 1008.75 1008.56 1008.37 1008.17 1007.99 1007.83 1007.71 1007.64 1007.64 1007.68 1007.76 1007.87 1008.00 1008.12 1008.23 1008.33 1008.40 1008.46 1008.51 1008.54 1008.57 1008.61 1008.65 1008.70 1008.77 1008.86 1008.99
1011.95 1011.86 1011.75 1011.62 1011.45 1011.24 1011.00 1010.73 1010.46 1010.20 1009.96 1009.75 1009.58 1009.44 1009.31 1009.19 1009.05 1008.90 1008.72 1008.53 1008.33 1008.15 1008.00 1007.89 1007.83 1007.82 1007.85 1007.92 1008.01 1008.11 1008.20 1008.28 1008.34 1008.38 1008.40 1008.40 1008.39 1008.37 1008.35 1008.34 1008.35 1008.38 1008.44
1012.10 1012.06 1012.01 1011.91 1011.77 1011.57 1011.32 1011.04 1010.75 1010.46 1010.19 1009.97 1009.78 1009.63 1009.51 1009.39 1009.27 1009.13 1008.96 1008.78 1008.59 1008.40 1008.22 1008.08 1007.99 1007.94 1007.94 1007.97 1008.03 1008.11 1008.18 1008.24 1008.28 1008.31 1008.30 1008.28 1008.24 1008.18 1008.12 1008.06 1008.02 1007.99 1007.99
1012.21 1012.25 1012.25 1012.21 1012.10 1011.93 1011.69 1011.40 1011.09 1010.77 1010.48 1010.23 1010.01 1009.84 1009.70 1009.58 1009.46 1009.32 1009.16 1008.99 1008.80 1008.60 1008.42 1008.26 1008.14 1008.07 1008.03 1008.03 1008.06 1008.10 1008.14 1008.18 1008.20 1008.20 1008.18 1008.14 1008.08 1008.00 1007.92 1007.83 1007.75 1007.68 1007.63
Thickness
5734 5733 5732 5731 5730 5729 5729 5728 5727 5727 5726 5727 5727 5726 5724 5723 5721 5721 5721 5721 5721 5720 5718 5717 5716 5714 5712 5711 5710 5708 5707 5707 5707 5706 5706 5705 5705 5704 5704 5704 5703 5703 5702
5732 5731 5729 5728 5727 5726 5725 5725 5724 5723 5722 5722 5722 5722 5720 5720 5719 5719 5718 5717 5717 5716 5715 5714 5713 5711 5709 5708 5707 5706 5705 5704 5704 5703 5702 5702 5702 5701 5701 5701 5700 5700 5699
5730 5729 5727 5726 5725 5724 5722 5721 5720 5719 5718 5718 5718 5718 5717 5716 5716 5715 5713 5713 5712 5712 5711 5710 5709 5707 5706 5705 5704 5703 5702 5702 5701 5700 5699 5699 5699 5698 5698 5698 5697 5697 5697
5728 5727 5725 5724 5723 5721 5720 5717 5715 5713 5712 5712 5711 5712 5712 5712 5713 5712 5711 5709 5709 5708 5707 5707 5705 5704 5703 5702 5701 5700 5699 5699 5698 5698 5697 5696 5696 5695 5695 5695 5695 5694 5694
5726 5724 5723 5721 5720 5719 5716 5715 5712 5710 5707 5707 5707 5706 5707 5708 5708 5708 5707 5707 5706 5705 5704 5703 5702 5700 5699 5698 5698 5697 5697 5696 5695 5695 5694 5694 5693 5693 5692 5692 5692 5692 5691
5723 5722 5720 5718 5717 5715 5712 5711 5708 5706 5704 5703 5703 5701 5701 5702 5703 5703 5703 5702 5702 5701 5701 5700 5698 5696 5695 5695 5695 5695 5694 5694 5693 5692 5692 5691 5690 5690 5689 5689 5689 5689 5689
5719 5718 5716 5715 5713 5711 5709 5707 5704 5701 5699 5698 5695 5693 5694 5696 5697 5697 5697 5697 5697 5697 5696 5695 5694 5692 5691 5691 5692 5692 5692 5692 5691 5690 5690 5689 5688 5687 5687 5686 5687 5687 5687
5716 5714 5712 5711 5710 5708 5705 5703 5700 5696 5694 5693 5689 5684 5681 5683 5688 5691 5691 5691 5691 5690 5690 5690 5689 5688 5688 5688 5689 5688 5688 5688 5688 5688 5687 5686 5685 5684 5684 5684 5684 5684 5684
5713 5711 5709 5708 5706 5704 5701 5699 5698 5694 5689 5688 5687 5682 5676 5674 5677 5681 5683 5684 5684 5684 5684 5684 5684 5685 5684 5685 5684 5684 5684 5684 5684 5684 5683 5683 5682 5681 5681 5681 5681 5681 5682
5709 5708 5706 5704 5703 5701 5698 5697 5695 5692 5688 5683 5682 5681 5679 5677 5672 5671 5675 5677 5678 5679 5679 5680 5680 5680 5680 5679 5679 5679 5679 5679 5679 5679 5679 5678 5678 5678 5677 5677 5677 5678 5678
5706 5704 5702 5701 5699 5698 5696 5694 5692 5690 5686 5682 5679 5677 5675 5674 5672 5668 5666 5668 5670 5672 5674 5674 5675 5675 5675 5674 5674 5674 5675 5674 5674 5674 5674 5674 5674 5674 5673 5673 5674 5674 5674
5701 5700 5699 5697 5696 5695 5693 5691 5689 5687 5684 5681 5678 5675 5672 5670 5667 5665 5662 5662 5662 5665 5668 5669 5669 5670 5670 5669 5669 5670 5669 5669 5669 5669 5669 5669 5669 5669 5669 5669 5669 5670 5670
5696 5695 5695 5694 5692 5691 5690 5688 5686 5683 5681 5677 5674 5672 5670 5669 5667 5664 5660 5658 5657 5659 5661 5663 5665 5665 5665 5665 5664 5664 5664 5664 5664 5664 5664 5664 5664 5664 5664 5664 5664 5665 5665
5693 5692 5691 5691 5689 5688 5686 5684 5681 5679 5677 5674 5671 5669 5667 5665 5664 5662 5658 5655 5651 5651 5653 5656 5659 5660 5660 5660 5659 5659 5658 5658 5658 5658 5658 5659 5658 5658 5658 5658 5659 5659 5659
5691 5689 5688 5687 5686 5684 5682 5680 5677 5675 5673 5670 5668 5665 5663 5662 5661 5660 5657 5654 5649 5645 5645 5649 5651 5654 5654 5654 5654 5653 5653 5653 5653 5652 5652 5652 5652 5653 5653 5653 5653 5653 5654
5689 5686 5685 5683 5681 5680 5678 5676 5673 5671 5669 5667 5665 5662 5659 5658 5657 5656 5654 5652 5649 5645 5642 5644 5646 5648 5649 5649 5648 5648 5647 5647 5647 5647 5647 5646 5646 5646 5646 5646 5647 5647 5647
5686 5684 5681 5679 5677 5675 5673 5671 5669 5668 5666 5663 5661 5658 5656 5655 5653 5652 5650 5648 5645 5642 5639 5640 5642 5643 5643 5642 5642 5641 5641 5641 5641 5641 5640 5640 5640 5639 5639 5639 5640 5640 5641
5683 5680 5678 5675 5673 5671 5669 5667 5666 5665 5662 5660 5658 5655 5653 5652 5649 5648 5646 5644 5641 5639 5636 5634 5635 5636 5637 5637 5636 5635 5635 5636 5635 5635 5634 5634 5633 5633 5633 5633 5634 5635 5635
5678 5676 5674 5671 5668 5666 5665 5664 5664 5662 5660 5658 5655 5653 5651 5648 5646 5644 5642 5640 5638 5636 5633 5630 5629 5630 5630 5630 5629 5629 5629 5628 5629 5628 5628 5627 5627 5627 5627 5627 5628 5628 5629
5675 5673 5671 5668 5665 5663 5662 5661 5661 5658 5656 5654 5652 5650 5648 5646 5643 5641 5639 5636 5634 5631 5628 5626 5624 5623 5622 5623 5622 5620 5620 5620 5621 5622 5621 5621 5620 5620 5621 5621 5621 5622 5622
5672 5670 5667 5665 5663 5661 5660 5658 5656 5654 5651 5649 5647 5646 5645 5643 5641 5638 5636 5632 5629 5626 5623 5620 5618 5617 5616 5615 5614 5614 5613 5613 5613 5614 5613 5614 5614 5614 5614 5615 5615 5616 5617
5668 5665 5663 5661 5659 5658 5657 5655 5652 5649 5647 5644 5642 5641 5640 5638 5637 5635 5632 5630 5626 5622 5618 5615 5613 5611 5612 5611 5610 5609 5606 5605 5605 5608 5606 5607 5608 5608 5609 5610 5611 5612 5612
5663 5661 5659 5657 5654 5654 5653 5651 5649 5645 5643 5640 5637 5635 5634 5633 5631 5629 5626 5625 5622 5620 5618 5613 5610 5608 5608 5608 5606 5604 5602 5601 5601 5603 5601 5601 5602 5603 5605 5606 5606 5607 5607
5659 5657 5655 5653 5651 5650 5649 5647 5645 5641 5638 5636 5634 5631 5628 5626 5625 5623 5620 5618 5616 5615 5613 5610 5608 5607 5607 5606 5603 5602 5600 5598 5598 5598 5597 5595 5597 5597 5600 5601 5602 5603 5603
5655 5654 5652 5650 5648 5646 5645 5643 5640 5636 5633 5631 5630 5628 5625 5623 5621 5618 5614 5611 5610 5610 5610 5608 5606 5604 5604 5603 5600 5597 5594 5591 5590 5591 5592 5591 5592 5592 5594 5595 5597 5598 5599
5652 5650 5648 5647 5645 5643 5642 5639 5636 5632 5629 5627 5625 5623 5622 5619 5616 5613 5609 5606 5604 5604 5604 5603 5601 5600 5599 5598 5597 5594 5592 5588 5586 5586 5588 5586 5586 5585 5586 5590 5592 5593 5593